Time,TemperatureF,DewpointF,PressureIn,WindDirection,WindDirectionDegrees,WindSpeedMPH,WindSpeedGustMPH,Humidity,HourlyPrecipIn,Conditions,Clouds,dailyrainin,SolarRadiationWatts/m^2,SoftwareType,DateUTC
2013-10-19 00:05:00,48.0,38.0,-100.00,South,174,3.0,7.0,69,0.00,,,0.03,0.000000,,2013-10-19 04:05:00,
2013-10-19 00:44:00,47.0,38.0,-100.00,South,179,3.0,9.0,72,0.00,,,0.02,0.000000,,2013-10-19 04:44:00,
2013-10-19 00:54:00,47.0,38.0,-100.00,South,179,3.0,9.0,72,0.00,,,0.02,0.000000,,2013-10-19 04:54:00,
2013-10-19 01:04:00,47.0,38.0,-100.00,South,179,3.0,9.0,72,0.00,,,0.02,0.000000,,2013-10-19 05:04:00,
2013-10-19 01:42:00,47.0,38.0,-100.00,South,181,3.0,10.0,71,0.00,,,0.02,0.000000,,2013-10-19 05:42:00,
2013-10-19 01:52:00,47.0,38.0,-100.00,South,181,3.0,10.0,71,0.00,,,0.02,0.000000,,2013-10-19 05:52:00,
2013-10-19 02:02:00,47.0,38.0,-100.00,South,181,3.0,10.0,71,0.00,,,0.02,0.000000,,2013-10-19 06:02:00,
2013-10-19 02:42:00,47.0,39.0,-100.00,SSE,166,4.0,9.0,74,0.00,,,0.02,0.000000,,2013-10-19 06:42:00,
2013-10-19 02:52:00,47.0,39.0,-100.00,SSE,166,4.0,9.0,74,0.00,,,0.02,0.000000,,2013-10-19 06:52:00,
2013-10-19 03:02:00,47.0,39.0,-100.00,SSE,166,4.0,9.0,74,0.00,,,0.02,0.000000,,2013-10-19 07:02:00,
2013-10-19 03:42:00,46.0,40.0,-100.00,SSE,167,4.0,10.0,78,0.00,,,0.02,0.000000,,2013-10-19 07:42:00,
2013-10-19 03:53:00,46.0,40.0,-100.00,SSE,167,4.0,10.0,78,0.00,,,0.02,0.000000,,2013-10-19 07:53:00,
2013-10-19 04:03:00,46.0,40.0,-100.00,SSE,167,4.0,10.0,78,0.00,,,0.02,0.000000,,2013-10-19 08:03:00,
2013-10-19 04:42:00,44.0,39.0,-100.00,South,173,3.0,7.0,81,0.00,,,0.02,0.000000,,2013-10-19 08:42:00,
2013-10-19 04:52:00,44.0,39.0,-100.00,South,173,3.0,7.0,81,0.00,,,0.02,0.000000,,2013-10-19 08:52:00,
2013-10-19 05:02:00,44.0,39.0,-100.00,South,173,3.0,7.0,81,0.00,,,0.02,0.000000,,2013-10-19 09:02:00,
2013-10-19 05:43:00,43.0,39.0,-100.00,ESE,121,2.0,8.0,85,0.00,,,0.02,0.000000,,2013-10-19 09:43:00,
2013-10-19 05:54:00,43.0,39.0,-100.00,ESE,121,2.0,8.0,85,0.00,,,0.02,0.000000,,2013-10-19 09:54:00,
2013-10-19 06:03:00,43.0,39.0,-100.00,ESE,121,2.0,8.0,85,0.00,,,0.02,0.000000,,2013-10-19 10:03:00,
2013-10-19 06:42:00,45.0,40.0,-100.00,SSE,156,3.0,7.0,82,0.00,,,0.02,0.000000,,2013-10-19 10:42:00,
2013-10-19 06:53:00,45.0,40.0,-100.00,SSE,156,3.0,7.0,82,0.00,,,0.02,0.000000,,2013-10-19 10:53:00,
2013-10-19 07:03:00,45.0,40.0,-100.00,SSE,156,3.0,7.0,82,0.00,,,0.02,0.000000,,2013-10-19 11:03:00,
2013-10-19 07:42:00,41.0,39.0,-100.00,SSW,199,0.0,4.0,92,0.00,,,0.01,0.000000,,2013-10-19 11:42:00,
2013-10-19 07:52:00,41.0,39.0,-100.00,SSW,199,0.0,4.0,92,0.00,,,0.01,0.000000,,2013-10-19 11:52:00,
2013-10-19 08:02:00,41.0,39.0,-100.00,SSW,199,0.0,4.0,92,0.00,,,0.01,0.000000,,2013-10-19 12:02:00,
2013-10-19 08:43:00,43.0,40.0,-100.00,SSE,159,4.0,7.0,89,0.00,,,0.00,14.000000,,2013-10-19 12:43:00,
2013-10-19 08:52:00,43.0,40.0,-100.00,SSE,159,4.0,7.0,89,0.00,,,0.00,14.000000,,2013-10-19 12:52:00,
2013-10-19 09:02:00,43.0,40.0,-100.00,SSE,159,4.0,7.0,89,0.00,,,0.00,14.000000,,2013-10-19 13:02:00,
2013-10-19 09:42:00,47.0,40.0,-100.00,South,170,4.0,10.0,76,0.00,,,0.00,79.000000,,2013-10-19 13:42:00,
2013-10-19 09:52:00,47.0,40.0,-100.00,South,170,4.0,10.0,76,0.00,,,0.00,79.000000,,2013-10-19 13:52:00,
2013-10-19 10:02:00,47.0,40.0,-100.00,South,170,4.0,10.0,76,0.00,,,0.00,79.000000,,2013-10-19 14:02:00,
2013-10-19 10:42:00,50.0,41.0,-100.00,South,181,4.0,10.0,70,0.00,,,0.00,154.000000,,2013-10-19 14:42:00,
2013-10-19 10:52:00,50.0,41.0,-100.00,South,181,4.0,10.0,70,0.00,,,0.00,154.000000,,2013-10-19 14:52:00,
2013-10-19 11:02:00,50.0,41.0,-100.00,South,181,4.0,10.0,70,0.00,,,0.00,154.000000,,2013-10-19 15:02:00,
2013-10-19 11:44:00,51.0,40.0,-100.00,SSE,164,6.0,12.0,67,0.00,,,0.00,173.000000,,2013-10-19 15:44:00,
2013-10-19 11:55:00,51.0,40.0,-100.00,SSE,164,6.0,12.0,67,0.00,,,0.00,173.000000,,2013-10-19 15:55:00,
2013-10-19 12:04:00,51.0,40.0,-100.00,SSE,164,6.0,12.0,67,0.00,,,0.00,173.000000,,2013-10-19 16:04:00,
2013-10-19 12:43:00,55.0,42.0,-100.00,South,176,5.0,13.0,62,0.00,,,0.00,234.000000,,2013-10-19 16:43:00,
2013-10-19 12:53:00,55.0,42.0,-100.00,South,176,5.0,13.0,62,0.00,,,0.00,234.000000,,2013-10-19 16:53:00,
2013-10-19 13:03:00,55.0,42.0,-100.00,South,176,5.0,13.0,62,0.00,,,0.00,234.000000,,2013-10-19 17:03:00,
2013-10-19 13:43:00,56.0,41.0,-100.00,South,169,7.0,12.0,58,0.00,,,0.00,265.000000,,2013-10-19 17:43:00,
2013-10-19 13:52:00,56.0,41.0,-100.00,South,169,7.0,12.0,58,0.00,,,0.00,265.000000,,2013-10-19 17:52:00,
2013-10-19 14:02:00,56.0,41.0,-100.00,South,169,7.0,12.0,58,0.00,,,0.00,265.000000,,2013-10-19 18:02:00,
2013-10-19 14:42:00,56.0,39.0,-100.00,South,180,8.0,15.0,53,0.00,,,0.00,301.000000,,2013-10-19 18:42:00,
2013-10-19 14:52:00,56.0,39.0,-100.00,South,180,8.0,15.0,53,0.00,,,0.00,301.000000,,2013-10-19 18:52:00,
2013-10-19 15:02:00,56.0,39.0,-100.00,South,180,8.0,15.0,53,0.00,,,0.00,301.000000,,2013-10-19 19:02:00,
2013-10-19 15:42:00,56.0,41.0,-100.00,South,174,7.0,17.0,56,0.00,,,0.00,241.000000,,2013-10-19 19:42:00,
2013-10-19 15:52:00,56.0,41.0,-100.00,South,174,7.0,17.0,56,0.00,,,0.00,241.000000,,2013-10-19 19:52:00,
2013-10-19 16:03:00,56.0,41.0,-100.00,South,174,7.0,17.0,56,0.00,,,0.00,241.000000,,2013-10-19 20:03:00,
2013-10-19 16:42:00,51.0,41.0,-100.00,South,181,8.0,16.0,69,0.00,,,0.00,101.000000,,2013-10-19 20:42:00,
2013-10-19 16:52:00,51.0,41.0,-100.00,South,181,8.0,16.0,69,0.00,,,0.00,101.000000,,2013-10-19 20:52:00,
2013-10-19 17:02:00,51.0,41.0,-100.00,South,181,8.0,16.0,69,0.00,,,0.00,101.000000,,2013-10-19 21:02:00,
2013-10-19 17:44:00,50.0,42.0,-100.00,South,170,7.0,14.0,74,0.00,,,0.00,84.000000,,2013-10-19 21:44:00,
2013-10-19 17:54:00,50.0,42.0,-100.00,South,170,7.0,14.0,74,0.00,,,0.00,84.000000,,2013-10-19 21:54:00,
2013-10-19 18:04:00,50.0,42.0,-100.00,South,170,7.0,14.0,74,0.00,,,0.00,84.000000,,2013-10-19 22:04:00,
2013-10-19 18:43:00,48.0,45.0,-100.00,South,169,6.0,18.0,88,0.02,,,0.02,25.000000,,2013-10-19 22:43:00,
2013-10-19 18:53:00,48.0,45.0,-100.00,South,169,6.0,18.0,88,0.02,,,0.02,25.000000,,2013-10-19 22:53:00,
2013-10-19 19:03:00,48.0,45.0,-100.00,South,169,6.0,18.0,88,0.02,,,0.02,25.000000,,2013-10-19 23:03:00,
2013-10-19 19:42:00,45.0,42.0,-100.00,NW,309,7.0,21.0,89,0.06,,,0.08,0.000000,,2013-10-19 23:42:00,
2013-10-19 19:53:00,45.0,42.0,-100.00,NW,309,7.0,21.0,89,0.06,,,0.08,0.000000,,2013-10-19 23:53:00,
2013-10-19 20:02:00,45.0,42.0,-100.00,NW,309,7.0,21.0,89,0.06,,,0.08,0.000000,,2013-10-20 00:02:00,
2013-10-19 20:42:00,44.0,41.0,-100.00,WNW,287,4.0,14.0,90,0.01,,,0.09,0.000000,,2013-10-20 00:42:00,
2013-10-19 20:52:00,44.0,41.0,-100.00,WNW,287,4.0,14.0,90,0.01,,,0.09,0.000000,,2013-10-20 00:52:00,
2013-10-19 21:02:00,44.0,41.0,-100.00,WNW,287,4.0,14.0,90,0.01,,,0.09,0.000000,,2013-10-20 01:02:00,
2013-10-19 21:42:00,43.0,41.0,-100.00,WSW,253,3.0,9.0,91,0.00,,,0.09,0.000000,,2013-10-20 01:42:00,
2013-10-19 21:53:00,43.0,41.0,-100.00,WSW,253,3.0,9.0,91,0.00,,,0.09,0.000000,,2013-10-20 01:53:00,
2013-10-19 22:02:00,43.0,41.0,-100.00,WSW,253,3.0,9.0,91,0.00,,,0.09,0.000000,,2013-10-20 02:02:00,
2013-10-19 22:42:00,43.0,41.0,-100.00,West,268,5.0,18.0,91,0.01,,,0.10,0.000000,,2013-10-20 02:42:00,
2013-10-19 22:52:00,43.0,41.0,-100.00,West,268,5.0,18.0,91,0.01,,,0.10,0.000000,,2013-10-20 02:52:00,
2013-10-19 23:02:00,43.0,41.0,-100.00,West,268,5.0,18.0,91,0.01,,,0.10,0.000000,,2013-10-20 03:02:00,